Regional Weather Roundup
Issued by NWS

Home | Current Version | Previous Version | Graphics & Text | Print | Product List | Glossary On
Versions: 1 2 3 4 5 6 7 8 9 10 11 12 13 14 15 16 17 18 19 20 21 22 23 24 25 26 27 28 29 30 31 32 33 34 35 36 37 38 39 40 41 42 43 44 45 46 47 48 49 50
000
ASUS43 KIND 301009
RWRIN

WEATHER ROUNDUP FOR INDIANA
NATIONAL WEATHER SERVICE INDIANAPOLIS IN
600 AM EDT THU JUL 30 2015

NOTE: "FAIR" INDICATES FEW OR NO CLOUDS BELOW 12,000 FEET WITH NO
SIGNIFICANT WEATHER AND/OR OBSTRUCTIONS TO VISIBILITY.

* - STATION DOES NOT REPORT WEATHER SUCH AS PRECIPITATION OR FOG.

+ - STATION NOT QUALITY CONTROLLED BY THE NATIONAL WEATHER SERVICE.
    USE DATA WITH CAUTION...ESPECIALLY DEWPOINT AND RELATIVE
    HUMIDITY OBSERVATIONS.

INZ001>003-010>013-019-020-301100-
NORTHWEST INDIANA

CITY           SKY/WX    TMP DP  RH WIND       PRES   REMARKS
GARY /AIRPORT/ CLEAR     68  59  73 W10       30.03S
KNOX *+        CLEAR     63  55  77 W5        30.02R
LA PORTE +     CLEAR     63  58  84 W5        30.03R
MICHIGAN CITY+ CLEAR     61  59  94 S3        30.02S
MONTICELLO +   CLEAR     63  61  94 NW3       30.04S
VALPARAISO     CLEAR     62  57  83 W7        30.03S

$$

LMZ046-743>745-301100-
SOUTHERN LAKE MICHIGAN

STATION/POSITION TIME  TEMP    WIND        PRES    WAVE
                       AIR SEA DIR/SP/G            HT
                 (UTC) (F)     (DEG/KT/KT) (MB)    (FT)
BURNS HARBOR     0900   71     260/ 11/ 13 1016.6F
MICHIGAN CITY    0900   73     240/ 15/ 17   N/A
5NW MICH CITY    1000   74 73  290/ 14/ 17   N/A     3

$$

INZ004-005-014>016-021>024-301100-
NORTH CENTRAL INDIANA

CITY           SKY/WX    TMP DP  RH WIND       PRES   REMARKS
GOSHEN         CLEAR     61  56  83 W5        30.01R
LOGANSPORT +   CLEAR     59  54  82 W6        30.05S
PERU/GRISSOM   CLEAR     60  58  90 W7        30.04R
ROCHESTER +    CLEAR     64  61  88 W6        30.04R
SOUTH BEND     CLEAR     62  58  86 SW5       30.02R
WARSAW +       CLEAR     61  57  88 W5        30.02R

$$

INZ006>009-017-018-025>027-301100-
NORTHEAST INDIANA

CITY           SKY/WX    TMP DP  RH WIND       PRES   REMARKS
AUBURN +       CLEAR     63  55  77 SW3       30.01R
FORT WAYNE     PTCLDY    63  58  83 W10       30.02R
HUNTINGTON +   CLEAR     64  58  82 W5        30.02S

$$

INZ028-029-035-036-043>045-051>053-301100-
WEST CENTRAL INDIANA

CITY           SKY/WX    TMP DP  RH WIND       PRES   REMARKS
LAFAYETTE      CLEAR     61  60  97 W3        30.05S
TERRE HAUTE    CLEAR     63  59  87 CALM      30.08R

$$

INZ030>032-037>040-046>048-054>057-064-065-301100-
CENTRAL INDIANA

CITY           SKY/WX    TMP DP  RH WIND       PRES   REMARKS
FRANKFORT +    CLEAR    N/A N/A N/A CALM      30.08R
INDIANAPOLIS   PTCLDY    66  58  75 NW6       30.04S
-EAGLE CREEK   CLEAR     67  60  78 N7        30.05R
KOKOMO *+      CLEAR     63  57  82 W8        30.05R
MARION +       CLEAR     60  57  89 W3        30.04S
MT COMFORT *+  CLEAR     66  59  77 NW7       30.06R
SHELBYVILLE    CLEAR     66  60  81 NW5       30.04S
ZIONSVILLE +   CLEAR     64  58  82 W3        30.07R

$$

INZ033-034-041-042-049-050-058-059-301100-
EAST CENTRAL INDIANA

CITY           SKY/WX    TMP DP  RH WIND       PRES   REMARKS
MUNCIE         CLEAR     63  59  87 W6        30.04R

$$

INZ060-061-067>069-081>083-085>088-301100-
SOUTHWEST INDIANA

CITY           SKY/WX    TMP DP  RH WIND       PRES   REMARKS
EVANSVILLE     CLEAR     71  60  68 VRB3      30.08S
HUNTINGBURG *+ PTCLDY    66  61  82 NW6       30.07S
WASHINGTON +   CLEAR     64  60  87 NW3       30.07S

$$

INZ062-063-066-070>080-084-089>092-301100-
SOUTH CENTRAL AND SOUTHEAST INDIANA

CITY           SKY/WX    TMP DP  RH WIND       PRES   REMARKS
BLOOMINGTON    CLEAR     65  60  84 NW3       30.07R
MADISON *+     MOCLDY    68  61  77 NW3       30.07R

$$



USA.gov is the U.S. government's official web portal to all federal, state and local government web resources and services.